Location: La Bastide
(43.1661°N, 1.2755°E)
Time: 04:45:20
(UTC+00:00)

Cosmos 1953 Rocket - Pass Details

Date: 18 March 2026
Orbit: 599 x 626 km, 82.5° (Epoch: 15 April)

Event Time Altitude Azimuth Distance (km) Brightness Sun altitude
Rises 04:27:33 0° 8° (N) 2,891 7.3 -17.9°
Reaches altitude 10° 04:30:31 10° 29° (NNE) 1,986 6.8 -17.3°
Maximum altitude 04:33:21 17° 70° (ENE) 1,595 6.8 -16.8°
Drops below altitude 10° 04:36:11 10° 110° (ESE) 1,986 7.0 -16.3°
Sets 04:39:08 0° 131° (SE) 2,891 7.5 -15.8°
